Regional Weather Roundup
Issued by NWS

Home | Current Version | Previous Version | Graphics & Text | Print | Product List | Glossary On
Versions: 1 2 3 4 5 6 7 8 9 10 11 12 13 14 15 16 17 18 19 20 21 22 23 24 25 26 27 28 29 30 31 32 33 34 35 36 37 38 39 40 41 42 43 44 45 46 47 48 49 50
000
ASUS43 KMKX 230811
RWRWI

WISCONSIN REGIONAL WEATHER ROUNDUP
NATIONAL WEATHER SERVICE MILWAUKEE/SULLIVAN WI
300 AM CDT THU OCT 23 2014

NOTE: "FAIR" INDICATES FEW OR NO CLOUDS BELOW 12,000 FEET WITH NO
SIGNIFICANT WEATHER AND/OR OBSTRUCTIONS TO VISIBILITY.

WIZ001-002-006>008-014>016-023>028-230900-
NORTHWEST WISCONSIN

CITY           SKY/WX    TMP DP  RH WIND       PRES   REMARKS
SUPERIOR ARPT  CLOUDY    52  40  64 SW6       29.99S
ASHLAND        CLOUDY    50  42  74 SW8       30.03F
HAYWARD        MOCLDY    48  41  76 S9        30.04F
SIREN          CLOUDY    53  39  58 S10G18    30.01S
CUMBERLAND     CLOUDY    48  39  71 SE10      30.03F
RICE LAKE      CLOUDY    48  41  76 SE7       30.06S
CHETEK         CLOUDY    47  43  86 SE8       30.06F
LADYSMITH      CLOUDY    46  43  89 SE9       30.09F
EAU CLAIRE     CLOUDY    49  42  77 SE7       30.07F
MENOMONIE      CLOUDY    49  43  81 SE7       30.06S
NEW RICHMOND   RAIN      51  41  69 S12       30.02F
OSCEOLA        LGT RAIN  52  42  69 SE5       30.04S
$$

WIZ003>005-009-010-017-018-230900-
NORTH CENTRAL WISCONSIN

CITY           SKY/WX    TMP DP  RH WIND       PRES   REMARKS
MANITOWISH WTR CLOUDY    45  37  72 S10       30.08S
ARBOR VITAE    CLOUDY    46  37  71 S9        30.10F
WOODRUFF       CLOUDY    46  37  71 S9        30.10F
RHINELANDER    MOCLDY    45  35  68 S10G16    30.13F
EAGLE RIVER    CLOUDY    41  35  78 S5        30.12S
LAND O LAKES   CLOUDY    43  37  77 S8        30.11F
PHILLIPS       DRIZZLE   45  40  85 S6        30.09S
TOMAHAWK       CLOUDY    42  37  80 CALM      30.13F
MEDFORD        CLOUDY    42  36  77 S8        30.11F
MERRILL        CLOUDY    42  38  86 SE3       30.14F
$$

WIZ029-030-035-036-043>047-230900-
CENTRAL WISCONSIN

CITY           SKY/WX    TMP DP  RH WIND       PRES   REMARKS
WAUSAU         CLOUDY    41  37  86 SE6       30.14F
MOSINEE        CLOUDY    37  37 100 SE9       30.16S WCI  31
MARSHFIELD     CLOUDY    44  36  73 S8        30.13F
STEVENS POINT  CLOUDY    37  36  93 CALM      30.17S
WAUPACA        FOG       37  35  94 CALM      30.19F VSB 1/2
WAUTOMA        CLEAR     30  29  96 CALM      30.19F FOG
WISC RAPIDS    MOCLDY    41  37  86 SE6       30.17S
CAMP DOUGLAS   MOCLDY    40  40  99 E8        30.15R WCI  34
$$

WIZ011>013-019>022-031-037>040-048>050-230900-
NORTHEAST WISCONSIN

CITY           SKY/WX    TMP DP  RH WIND       PRES   REMARKS
ANTIGO         CLOUDY    37  37 100 S7        30.17R FOG     WCI  31
SHAWANO        FOG       35  33  94 CALM      30.19F VSB 3/4
OCONTO         FAIR      40  38  91 CALM      30.20S
STURGEON BAY   CLEAR     39  36  87 S8        30.21F WCI  34
GREEN BAY      CLEAR     36  34  92 S3        30.21S
MANITOWOC      CLEAR     40  38  93 S5        30.22F
APPLETON       CLEAR     36  36 100 S5        30.19F WCI  32
CLINTONVILLE   FOG       32  32 100 CALM      30.19F VSB 1/4
OSHKOSH        CLEAR     36  35  96 SE7       30.19F WCI  30
$$

WIZ032>034-041-042-053>061-230900-
SOUTHWEST WISCONSIN

CITY           SKY/WX    TMP DP  RH WIND       PRES   REMARKS
LA CROSSE      CLOUDY    50  43  77 SE8       30.10F
SPARTA         CLOUDY    51  36  55 S10       30.13F
VIROQUA        CLOUDY    48  37  67 S10       30.13F
BOSCOBEL       CLOUDY    45  39  79 CALM      30.17R
PRAIRIE DU CHI CLOUDY    49  38  67 E6        30.14S
PLATTEVILLE    PTCLDY    42  35  76 SE10      30.16F
$$

WIZ056-057-062-063-064-067-068-230900-
SOUTH CENTRAL WISCONSIN

CITY           SKY/WX    TMP DP  RH WIND       PRES   REMARKS
REEDSBURG      CLEAR     43  35  74 SE5       30.15F
BARABOO/DELLS  CLEAR     41  35  79 SE5       30.16F
LONE ROCK      PTCLDY    45  35  68 E7        30.17S
MINERAL POINT  PTCLDY    43  36  75 SE8       30.15F
MADISON        FAIR      39  35  86 S8        30.19F WCI  33
MIDDLETON      FAIR      41  35  77 S3        30.19F
WATERTOWN      CLEAR     36  35  94 CALM      30.19F
MONROE         PTCLDY    39  36  87 S10       30.18F WCI  32
JANESVILLE     CLEAR     36  34  93 SE6       30.20F WCI  31
$$

WIZ051-052-058>065-066-070>072-230900-
SOUTHEAST WISCONSIN

CITY           SKY/WX    TMP DP  RH WIND       PRES   REMARKS
MILWAUKEE      PTCLDY    36  33  89 CALM      30.23S
WAUKESHA       CLEAR     32  32 100 CALM      30.23S FOG
MILWAUKEE/TIMM CLEAR     32  28  86 CALM      30.23F
RACINE         CLEAR     34  31  88 CALM      30.24F
BURLINGTON     FOG       26  26 100 CALM      30.22F VSB 1/2
KENOSHA        CLEAR     33  31  92 S3        30.23S
FOND DU LAC    CLEAR     35  32  88 S7        30.20F WCI  29
SHEBOYGAN      FOG       30  28  92 CALM      30.22F VSB 1/2
WEST BEND      FOG       32  30  93 CALM      30.22F VSB 1/4
JUNEAU         CLEAR     35  34  96 SE6       30.21F WCI  30
$$

LSZ147-162-230900-
LAKE SUPERIOR

STATION/POSITION TIME  TEMP    WIND        PRES    WAVE
                       AIR SEA DIR/SP/G            HT/PER
                 (UTC) (F)     (DEG/KT/KT) (MB)    (FT/S)
W MID LAKE BUOY  0750   48 46  130/ 12/ 16 1017.8F   1/ 3
DEVILS ISLAND    0800   50     180/  8/ 12 1016.7F
PORT WING        0700   55     170/  9/ 12 1016.3F
SAXON HARBOR     0700   54     190/  5/ 10 1016.6F
$$

LMZ867-665-643>646-230900-
LAKE MICHIGAN

STATION/POSITION TIME  TEMP    WIND        PRES    WAVE
                       AIR SEA DIR/SP/G            HT/PER
                 (UTC) (F)     (DEG/KT/KT) (MB)    (FT/S)
CHAMBERS ISLAND  0700   45     150/  4/ 11 1023.0F
N MID LAKE BUOY  0750   47 51  190/ 14/ 17 1023.6F   1/ 3
NORTHPORT PIER   0700   43     170/  3/  8 1023.0F
SISTER BAY       0628          150/  8/ 10   N/A
ALGOMA LAKESHORE 0726          240/ 20/ 22   N/A
KEWAUNEE LAKESHO 0700   46     200/  9/ 11 1022.3F
SHEBOYGAN LAKESH 0800   42 51  220/  7/  8 1023.8F
PORT WASHINGTON  0700   41     270/  3/  4 1024.4
ATWATER BUOY     0800   49     190/  8/  8 1024.3F
MILWAUKEE LAKESH 0700   45     180/  5/  6   N/A
S MID LAKE BUOY  0750   50 54  170/ 12/ 14 1024.5F
KENOSHA   LAKESH 0800   44     190/  4/  5 1023.7S
$$

TC  - TEMPERATURE IN CELSIUS
VSB - VISIBILITY IN STATUTE MILES
WCI - WIND CHILL INDEX
HX  - HEAT INDEX




USA.gov is the U.S. government's official web portal to all federal, state and local government web resources and services.